This demonstration page uses our WeatherBlox Daily Observations layout. Learn more.

Left ArrowRight Arrow

34.02893, -84.19858

Hourly Observations for February 16, 2017

Temp ( °F °C ) Dew Point ( °F °C ) Humidity (%) Winds ( mph kmh ) Pressure ( in mb ) Visibility ( mi km ) Precip ( " mm )
12:53 am 00:53 Clear 41 5 24 -4.4 51 51 NW 13 20 29.92 1013 10 16 0.00 0.00
1:53 am 01:53 Clear 40 4.4 24 -4.4 53 53 NW 10 17 29.94 1014 10 16 0.00 0.00
2:53 am 02:53 Clear 39 3.9 23 -5 53 53 NW 12 19 29.94 1014 10 16 0.00 0.00
3:53 am 03:53 Clear 38 3.3 21 -6.1 51 51 NW 10 17 29.94 1014 10 16 0.00 0.00
4:53 am 04:53 Clear 37 2.8 20 -6.7 50 50 NW 8 13 29.96 1014 10 16 0.00 0.00
5:53 am 05:53 Clear 37 2.8 19 -7.2 48 48 WNW 9 15 29.98 1015 10 16 0.00 0.00
6:53 am 06:53 Clear 35 1.7 20 -6.7 54 54 WNW 8 13 30.00 1016 10 16 0.00 0.00
7:53 am 07:53 Sunny 36 2.2 21 -6.1 55 55 W 9 15 30.03 1017 10 16 0.00 0.00
8:53 am 08:53 Sunny 39 3.9 21 -6.1 48 48 WNW 13 20 30.06 1018 10 16 0.00 0.00
9:53 am 09:53 Sunny 44 6.7 19 -7.2 37 37 NW 15 24 30.05 1018 10 16 0.00 0.00
10:53 am 10:53 Sunny 47 8.3 18 -7.8 31 31 WNW 15 24 30.07 1018 10 16 0.00 0.00
11:53 am 11:53 Sunny 50 10 16 -8.9 26 26 NW 14 22 30.06 1018 10 16 0.00 0.00
12:53 pm 12:53 Sunny 52 11.1 16 -8.9 24 24 WNW 15 24 30.03 1017 10 16 0.00 0.00
1:53 pm 13:53 Sunny 54 12.2 15 -9.4 21 21 NW 10 17 30.02 1017 10 16 0.00 0.00
2:53 pm 14:53 Sunny 56 13.3 18 -7.8 22 22 W 10 17 29.99 1016 10 16 0.00 0.00
3:53 pm 15:53 Sunny 57 13.9 19 -7.2 23 23 NW 10 17 29.98 1015 10 16 0.00 0.00
4:53 pm 16:53 Sunny 56 13.3 18 -7.8 22 22 W 12 19 29.99 1016 10 16 0.00 0.00
5:53 pm 17:53 Sunny 55 12.8 21 -6.1 26 26 WNW 6 9 30.00 1016 10 16 0.00 0.00
6:53 pm 18:53 Clear 51 10.6 22 -5.6 32 32 WNW 6 9 30.02 1017 10 16 0.00 0.00
7:53 pm 19:53 Clear 50 10 20 -6.7 30 30 WNW 5 7 30.04 1017 10 16 0.00 0.00
8:53 pm 20:53 Clear 47 8.3 21 -6.1 36 36 W 3 6 30.06 1018 10 16 0.00 0.00
9:53 pm 21:53 Clear 47 8.3 20 -6.7 34 34 WNW 3 6 30.05 1018 10 16 0.00 0.00
10:53 pm 22:53 Clear 38 3.3 25 -3.9 60 60 Calm 30.04 1017 10 16 0.00 0.00
11:53 pm 23:53 Clear 43 6.1 23 -5 45 45 SSW 3 6 30.03 1017 10 16 0.00 0.00

Powered by AerisWeather